Location: Veytaux
(46.4185°N, 6.9320°E)
Time: 08:29:40
(UTC+00:00)

NPP - Pass Details

Date: 27 May 2022
Orbit: 826 x 828 km, 98.7° (Epoch: 01 July)

Event Time Altitude Azimuth Distance (km) Brightness Sun altitude
Rises 01:30:18 0° 13° (NNE) 3,378 8.3 -17.0°
Reaches altitude 10° 01:32:40 10° 13° (NNE) 2,441 7.3 -16.8°
Maximum altitude 01:38:05 85° 288° (WNW) 837 3.6 -16.3°
Enters shadow 01:41:22 25° 199° (SSW) 1,622 4.6 -16.0°
